RYR4TK LEPA-EDDG

Flight info

Callsign RYR4TK
Flight time 1h 59m
Altitude 36000
Route MEROS N853 LUMAS DCT MAXIR DCT LUSOL DCT BODRU DCT OKTET DCT IRMAR DCT KINES DCT VANAS DCT MOBLO DCT UBIMA DCT GILIR DCT PENDU DCT IXILU DCT EPL DCT ROUSY DCT DIK T856 QATJA N853 HMM HMM1A
Aircraft B738/M-SDE2E3FGHIRWXY/LB1

Departure

Time 2026-05-05 19:16
Airport Palma de Mallorca Airport (LEPA)

Arrival

Time 2026-05-05 21:15
Airport Münster Osnabrück Airport (EDDG)
Time Latitude Longitude Altitude Speed Heading
2026-05-05 18:29 39.54512 2.73229 37 ft 0 kts 346°
2026-05-05 19:00 39.54502 2.73232 37 ft 4 kts 346°
2026-05-05 19:00 39.54481 2.73239 36 ft 4 kts 352°
2026-05-05 19:01 39.54457 2.73235 35 ft 4 kts 40°
2026-05-05 19:01 39.54441 2.73211 36 ft 3 kts 58°
2026-05-05 19:01 39.54434 2.73196 37 ft 0 kts 58°
2026-05-05 19:05 39.54437 2.73202 35 ft 4 kts 58°
2026-05-05 19:05 39.54460 2.73250 36 ft 7 kts 58°
2026-05-05 19:05 39.54491 2.73315 37 ft 10 kts 58°
2026-05-05 19:06 39.54533 2.73401 36 ft 13 kts 58°
2026-05-05 19:06 39.54579 2.73499 37 ft 13 kts 57°
2026-05-05 19:06 39.54629 2.73593 37 ft 13 kts 58°
2026-05-05 19:06 39.54674 2.73700 37 ft 14 kts 55°
2026-05-05 19:07 39.54724 2.73803 37 ft 8 kts 60°
2026-05-05 19:07 39.54750 2.73860 37 ft 7 kts 58°
2026-05-05 19:07 39.54777 2.73917 37 ft 9 kts 58°
2026-05-05 19:07 39.54816 2.73981 37 ft 9 kts 38°
2026-05-05 19:08 39.54874 2.73977 37 ft 9 kts 332°
2026-05-05 19:08 39.54930 2.73977 37 ft 9 kts 40°
2026-05-05 19:08 39.54982 2.73998 37 ft 9 kts 340°
2026-05-05 19:08 39.55034 2.73960 37 ft 8 kts 328°
2026-05-05 19:09 39.55085 2.73919 37 ft 9 kts 329°
2026-05-05 19:09 39.55148 2.73870 37 ft 12 kts 328°
2026-05-05 19:09 39.55224 2.73810 37 ft 14 kts 328°
2026-05-05 19:09 39.55311 2.73741 37 ft 16 kts 328°
2026-05-05 19:10 39.55424 2.73650 37 ft 21 kts 329°
2026-05-05 19:10 39.55535 2.73563 36 ft 18 kts 329°
2026-05-05 19:10 39.55647 2.73513 37 ft 17 kts 20°
2026-05-05 19:10 39.55719 2.73631 37 ft 17 kts 58°
2026-05-05 19:11 39.55778 2.73757 35 ft 16 kts 58°
2026-05-05 19:11 39.55833 2.73874 37 ft 14 kts 59°
2026-05-05 19:11 39.55886 2.73986 37 ft 17 kts 58°
2026-05-05 19:11 39.55954 2.74129 37 ft 19 kts 58°
2026-05-05 19:12 39.56027 2.74254 37 ft 15 kts 37°
2026-05-05 19:12 39.56117 2.74317 36 ft 11 kts 26°
2026-05-05 19:12 39.56138 2.74331 37 ft 0 kts 26°
2026-05-05 19:14 39.56158 2.74342 36 ft 6 kts 16°
2026-05-05 19:14 39.56201 2.74334 37 ft 7 kts 328°
2026-05-05 19:14 39.56223 2.74280 37 ft 8 kts 267°
2026-05-05 19:15 39.56183 2.74181 35 ft 24 kts 238°
2026-05-05 19:15 39.55958 2.73716 37 ft 96 kts 238°
2026-05-05 19:15 39.55492 2.72743 39 ft 156 kts 237°
2026-05-05 19:15 39.54892 2.71415 392 ft 180 kts 242°
2026-05-05 19:16 39.54295 2.69940 1174 ft 186 kts 238°
2026-05-05 19:16 39.53592 2.68523 1995 ft 192 kts 238°
2026-05-05 19:16 39.52834 2.67008 2401 ft 205 kts 239°
2026-05-05 19:16 39.52066 2.65451 2939 ft 209 kts 239°
2026-05-05 19:17 39.51270 2.63823 3579 ft 213 kts 239°
2026-05-05 19:17 39.50489 2.62219 4325 ft 214 kts 240°
2026-05-05 19:17 39.49513 2.60703 4775 ft 235 kts 218°
2026-05-05 19:17 39.48021 2.59593 5069 ft 257 kts 212°
2026-05-05 19:18 39.46415 2.58418 5684 ft 265 kts 213°
2026-05-05 19:18 39.44823 2.57239 6387 ft 270 kts 213°
2026-05-05 19:18 39.43103 2.56242 7102 ft 277 kts 192°
2026-05-05 19:18 39.41179 2.56536 7876 ft 288 kts 158°
2026-05-05 19:19 39.39584 2.58139 8626 ft 296 kts 135°
2026-05-05 19:19 39.38193 2.60124 9321 ft 301 kts 133°
2026-05-05 19:19 39.37185 2.62525 9941 ft 313 kts 103°
2026-05-05 19:19 39.37193 2.65374 10301 ft 331 kts 75°
2026-05-05 19:20 39.38077 2.68205 10477 ft 351 kts 65°
2026-05-05 19:20 39.39116 2.71161 10630 ft 371 kts 65°
2026-05-05 19:20 39.40203 2.74284 10785 ft 390 kts 66°
2026-05-05 19:20 39.41315 2.77550 11134 ft 401 kts 66°
2026-05-05 19:21 39.42427 2.80891 11668 ft 407 kts 67°
2026-05-05 19:21 39.43536 2.84282 12255 ft 411 kts 68°
2026-05-05 19:21 39.44645 2.87716 12830 ft 416 kts 68°
2026-05-05 19:21 39.45760 2.91199 13376 ft 422 kts 69°
2026-05-05 19:22 39.46890 2.94744 13925 ft 428 kts 69°
2026-05-05 19:22 39.48029 2.98327 14472 ft 432 kts 69°
2026-05-05 19:22 39.49177 3.01944 15073 ft 436 kts 69°
2026-05-05 19:22 39.50334 3.05593 15644 ft 440 kts 69°
2026-05-05 19:23 39.51499 3.09270 16274 ft 442 kts 68°
2026-05-05 19:23 39.52670 3.12969 16861 ft 446 kts 68°
2026-05-05 19:23 39.53851 3.16706 17409 ft 451 kts 68°
2026-05-05 19:23 39.55029 3.20438 17898 ft 456 kts 69°
2026-05-05 19:24 39.56237 3.24273 18383 ft 461 kts 68°
2026-05-05 19:24 39.57452 3.28132 18874 ft 464 kts 68°
2026-05-05 19:24 39.58669 3.32005 19387 ft 466 kts 68°
2026-05-05 19:24 39.59898 3.35920 19842 ft 470 kts 68°
2026-05-05 19:25 39.61131 3.39853 19891 ft 473 kts 68°
2026-05-05 19:25 39.62366 3.43799 19898 ft 471 kts 68°
2026-05-05 19:25 39.63597 3.47736 19906 ft 471 kts 68°
2026-05-05 19:25 39.64830 3.51686 19913 ft 471 kts 68°
2026-05-05 19:26 39.66059 3.55632 19912 ft 472 kts 69°
2026-05-05 19:26 39.67288 3.59581 19904 ft 472 kts 69°
2026-05-05 19:26 39.68516 3.63534 19903 ft 472 kts 69°
2026-05-05 19:26 39.69743 3.67489 19903 ft 472 kts 69°
2026-05-05 19:27 39.70968 3.71443 19904 ft 472 kts 69°
2026-05-05 19:27 39.71777 3.74056 19903 ft 472 kts 69°
2026-05-05 19:27 39.72999 3.78009 19903 ft 471 kts 69°
2026-05-05 19:27 39.74218 3.81962 19899 ft 471 kts 69°
2026-05-05 19:28 39.75436 3.85911 19913 ft 471 kts 69°
2026-05-05 19:28 39.76650 3.89861 19907 ft 470 kts 69°
2026-05-05 19:28 39.77866 3.93817 19906 ft 470 kts 69°
2026-05-05 19:28 39.79077 3.97763 19907 ft 470 kts 69°
2026-05-05 19:29 39.80285 4.01708 19911 ft 469 kts 69°
2026-05-05 19:29 39.81491 4.05651 19911 ft 469 kts 69°
2026-05-05 19:29 39.82698 4.09596 19911 ft 469 kts 69°
2026-05-05 19:29 39.83902 4.13543 19914 ft 469 kts 69°
2026-05-05 19:30 39.85381 4.17341 19887 ft 470 kts 52°
2026-05-05 19:30 39.87667 4.20315 19917 ft 465 kts 33°
2026-05-05 19:30 39.90439 4.22412 19916 ft 459 kts 18°
2026-05-05 19:30 39.93476 4.23519 19927 ft 451 kts
2026-05-05 19:31 39.96563 4.24236 19934 ft 451 kts
2026-05-05 19:31 39.99660 4.24903 19911 ft 451 kts
2026-05-05 19:31 40.02759 4.25570 19909 ft 451 kts
2026-05-05 19:31 40.05816 4.26246 19902 ft 452 kts
2026-05-05 19:32 40.08914 4.26951 19896 ft 451 kts
2026-05-05 19:32 40.12000 4.27668 19898 ft 451 kts
2026-05-05 19:32 40.15085 4.28395 19899 ft 450 kts
2026-05-05 19:32 40.18165 4.29125 19909 ft 450 kts
2026-05-05 19:33 40.21243 4.29856 19901 ft 449 kts
2026-05-05 19:33 40.24319 4.30586 19898 ft 449 kts
2026-05-05 19:33 40.27394 4.31317 19900 ft 449 kts
2026-05-05 19:33 40.30476 4.32048 19899 ft 449 kts
2026-05-05 19:34 40.33545 4.32778 19894 ft 449 kts
2026-05-05 19:34 40.36622 4.33509 19896 ft 449 kts
2026-05-05 19:34 40.39707 4.34243 19923 ft 450 kts
2026-05-05 19:35 40.45873 4.35713 19905 ft 451 kts
2026-05-05 19:35 40.48961 4.36450 19897 ft 451 kts
2026-05-05 19:35 40.52050 4.37186 19896 ft 451 kts
2026-05-05 19:35 40.55140 4.37919 19895 ft 451 kts
2026-05-05 19:36 40.58191 4.38641 19900 ft 453 kts
2026-05-05 19:36 40.61316 4.39378 20155 ft 459 kts
2026-05-05 19:36 40.64492 4.40131 20776 ft 458 kts
2026-05-05 19:36 40.67634 4.40879 21350 ft 459 kts
2026-05-05 19:37 40.70744 4.41618 21778 ft 462 kts
2026-05-05 19:37 40.73925 4.42375 22186 ft 466 kts
2026-05-05 19:37 40.77131 4.43138 22607 ft 470 kts
2026-05-05 19:37 40.80359 4.43909 23045 ft 473 kts
2026-05-05 19:38 40.83606 4.44686 23477 ft 476 kts
2026-05-05 19:38 40.86882 4.45470 23742 ft 481 kts
2026-05-05 19:38 40.90191 4.46261 24051 ft 485 kts
2026-05-05 19:38 40.93517 4.47068 24398 ft 487 kts
2026-05-05 19:39 40.96858 4.47886 24740 ft 490 kts
2026-05-05 19:39 41.00218 4.48712 25055 ft 493 kts
2026-05-05 19:39 41.03592 4.49540 25359 ft 496 kts
2026-05-05 19:39 41.07003 4.50375 25645 ft 500 kts
2026-05-05 19:40 41.10442 4.51214 25856 ft 505 kts
2026-05-05 19:40 41.13898 4.52056 26158 ft 507 kts
2026-05-05 19:40 41.17373 4.52904 26487 ft 509 kts
2026-05-05 19:40 41.20864 4.53757 26783 ft 511 kts
2026-05-05 19:41 41.24371 4.54615 27051 ft 514 kts
2026-05-05 19:41 41.27898 4.55479 27331 ft 517 kts
2026-05-05 19:41 41.31447 4.56349 27536 ft 520 kts
2026-05-05 19:41 41.35017 4.57226 27816 ft 523 kts
2026-05-05 19:42 41.38598 4.58108 28085 ft 524 kts
2026-05-05 19:42 41.42190 4.58994 28453 ft 524 kts
2026-05-05 19:42 41.45771 4.59879 28859 ft 523 kts
2026-05-05 19:42 41.49348 4.60763 29263 ft 523 kts
2026-05-05 19:43 41.52927 4.61647 29600 ft 523 kts
2026-05-05 19:43 41.56461 4.62521 29944 ft 523 kts
2026-05-05 19:43 41.60041 4.63407 30269 ft 523 kts
2026-05-05 19:43 41.63614 4.64294 30607 ft 522 kts
2026-05-05 19:44 41.67175 4.65177 30929 ft 521 kts
2026-05-05 19:44 41.70743 4.66128 31279 ft 524 kts
2026-05-05 19:44 41.74227 4.67628 31632 ft 529 kts 17°
2026-05-05 19:44 41.77547 4.69807 31935 ft 534 kts 27°
2026-05-05 19:45 41.80730 4.72364 32212 ft 535 kts 28°
2026-05-05 19:45 41.83901 4.74989 32454 ft 536 kts 28°
2026-05-05 19:45 41.87078 4.77635 32726 ft 536 kts 28°
2026-05-05 19:45 41.90250 4.80262 33061 ft 535 kts 28°
2026-05-05 19:46 41.93426 4.82866 33394 ft 534 kts 28°
2026-05-05 19:46 41.96594 4.85444 33692 ft 533 kts 27°
2026-05-05 19:46 41.99775 4.88018 33922 ft 534 kts 27°
2026-05-05 19:46 42.02968 4.90597 34136 ft 534 kts 27°
2026-05-05 19:47 42.06142 4.93162 34413 ft 532 kts 27°
2026-05-05 19:47 42.09318 4.95732 34722 ft 530 kts 27°
2026-05-05 19:47 42.12475 4.98292 34981 ft 529 kts 27°
2026-05-05 19:47 42.15625 5.00851 35262 ft 527 kts 27°
2026-05-05 19:48 42.18762 5.03403 35543 ft 526 kts 27°
2026-05-05 19:48 42.21845 5.05916 35821 ft 524 kts 27°
2026-05-05 19:48 42.24954 5.08453 36124 ft 521 kts 27°
2026-05-05 19:48 42.28058 5.10988 36470 ft 518 kts 27°
2026-05-05 19:49 42.31129 5.13500 36809 ft 515 kts 28°
2026-05-05 19:49 42.33201 5.15196 36910 ft 515 kts 28°
2026-05-05 19:49 42.37289 5.18542 36894 ft 519 kts 28°
2026-05-05 19:50 42.43446 5.23595 36888 ft 516 kts 28°
2026-05-05 19:50 42.49563 5.28630 36942 ft 514 kts 28°
2026-05-05 19:51 42.55696 5.33685 37124 ft 517 kts 28°
2026-05-05 19:51 42.58763 5.36220 37366 ft 515 kts 28°
2026-05-05 19:51 42.61819 5.38749 37643 ft 513 kts 28°
2026-05-05 19:51 42.64859 5.41267 37921 ft 511 kts 28°
2026-05-05 19:52 42.67901 5.43789 37877 ft 514 kts 28°
2026-05-05 19:52 42.73998 5.48851 37890 ft 512 kts 28°
2026-05-05 19:53 42.80059 5.53898 37913 ft 509 kts 28°
2026-05-05 19:53 42.86089 5.58930 37894 ft 507 kts 28°
2026-05-05 19:54 42.92051 5.63915 37910 ft 505 kts 28°
2026-05-05 19:54 42.98031 5.68927 37909 ft 504 kts 28°
2026-05-05 19:55 43.04008 5.73949 37922 ft 503 kts 29°
2026-05-05 19:55 43.09975 5.78974 37947 ft 504 kts 29°
2026-05-05 19:56 43.15955 5.84021 37948 ft 505 kts 29°
2026-05-05 19:56 43.21937 5.89083 37945 ft 506 kts 29°
2026-05-05 19:57 43.27919 5.94157 37943 ft 506 kts 29°
2026-05-05 19:57 43.33906 5.99246 37936 ft 506 kts 29°
2026-05-05 19:58 43.40179 6.03410 37940 ft 497 kts 13°
2026-05-05 19:58 43.46885 6.05025 37947 ft 486 kts 358°
2026-05-05 19:59 43.53646 6.05558 37941 ft 486 kts 358°
2026-05-05 19:59 43.60402 6.06144 37940 ft 487 kts 359°
2026-05-05 20:00 43.67119 6.06807 37961 ft 487 kts 359°
2026-05-05 20:00 43.73885 6.07502 37943 ft 489 kts
2026-05-05 20:01 43.80527 6.09905 37928 ft 500 kts 21°
2026-05-05 20:01 43.86782 6.14197 37976 ft 503 kts 24°
2026-05-05 20:02 43.93025 6.18614 37952 ft 504 kts 24°
2026-05-05 20:02 43.99317 6.22966 37952 ft 505 kts 23°
2026-05-05 20:03 44.05621 6.27282 37973 ft 505 kts 23°
2026-05-05 20:03 44.11928 6.31611 37960 ft 506 kts 23°
2026-05-05 20:04 44.18237 6.35959 37964 ft 506 kts 24°
2026-05-05 20:04 44.24543 6.40317 37984 ft 506 kts 24°
2026-05-05 20:05 44.30838 6.44686 37982 ft 505 kts 24°
2026-05-05 20:05 44.37128 6.49061 37962 ft 504 kts 24°
2026-05-05 20:06 44.43344 6.53396 37982 ft 502 kts 24°
2026-05-05 20:06 44.49593 6.57761 37982 ft 501 kts 24°
2026-05-05 20:07 44.55821 6.62093 37963 ft 498 kts 24°
2026-05-05 20:07 44.62010 6.66401 37959 ft 495 kts 24°
2026-05-05 20:08 44.68174 6.70707 37957 ft 494 kts 24°
2026-05-05 20:08 44.74316 6.75008 37959 ft 493 kts 24°
2026-05-05 20:09 44.80700 6.78183 37981 ft 485 kts
2026-05-05 20:09 44.87373 6.78722 38002 ft 476 kts 353°
2026-05-05 20:10 44.94016 6.78180 37949 ft 478 kts 352°
2026-05-05 20:10 45.00643 6.77661 37991 ft 477 kts 353°
2026-05-05 20:11 45.07291 6.77205 37967 ft 479 kts 353°
2026-05-05 20:11 45.13920 6.76772 37970 ft 481 kts 353°
2026-05-05 20:12 45.20632 6.76329 37967 ft 484 kts 353°
2026-05-05 20:12 45.27366 6.75882 37964 ft 486 kts 353°
2026-05-05 20:13 45.34147 6.75431 37954 ft 488 kts 354°
2026-05-05 20:13 45.40935 6.75001 37964 ft 489 kts 354°
2026-05-05 20:14 45.47749 6.74567 37958 ft 492 kts 354°
2026-05-05 20:14 45.53434 6.74184 37952 ft 491 kts 353°
2026-05-05 20:15 45.60265 6.73715 37938 ft 492 kts 353°
2026-05-05 20:15 45.67095 6.73250 37944 ft 491 kts 354°
2026-05-05 20:16 45.73901 6.72787 37965 ft 488 kts 353°
2026-05-05 20:16 45.80692 6.72321 37949 ft 489 kts 353°
2026-05-05 20:17 45.87476 6.71852 37965 ft 489 kts 353°
2026-05-05 20:17 45.94294 6.71378 37955 ft 490 kts 354°
2026-05-05 20:18 46.01102 6.70904 37945 ft 489 kts 354°
2026-05-05 20:18 46.07899 6.70430 37931 ft 487 kts 354°
2026-05-05 20:19 46.14545 6.69313 37912 ft 479 kts 340°
2026-05-05 20:19 46.20825 6.66300 37914 ft 475 kts 336°
2026-05-05 20:20 46.27047 6.63149 37924 ft 473 kts 337°
2026-05-05 20:20 46.33274 6.60054 37906 ft 473 kts 337°
2026-05-05 20:21 46.39515 6.56997 37901 ft 473 kts 338°
2026-05-05 20:21 46.45741 6.53953 37897 ft 472 kts 338°
2026-05-05 20:22 46.51960 6.50902 37898 ft 471 kts 338°
2026-05-05 20:22 46.58174 6.47845 37893 ft 471 kts 338°
2026-05-05 20:23 46.64345 6.44799 37900 ft 472 kts 338°
2026-05-05 20:23 46.70571 6.41720 37899 ft 473 kts 338°
2026-05-05 20:24 46.76810 6.38627 37907 ft 473 kts 338°
2026-05-05 20:24 46.83054 6.35523 37904 ft 474 kts 338°
2026-05-05 20:25 46.89308 6.32407 37901 ft 475 kts 338°
2026-05-05 20:25 46.95563 6.29282 37899 ft 475 kts 338°
2026-05-05 20:26 47.01825 6.26147 37909 ft 476 kts 338°
2026-05-05 20:26 47.08039 6.22848 37892 ft 473 kts 333°
2026-05-05 20:27 47.13939 6.18602 37906 ft 472 kts 329°
2026-05-05 20:27 47.19804 6.14223 37901 ft 473 kts 330°
2026-05-05 20:28 47.25701 6.09946 37886 ft 473 kts 331°
2026-05-05 20:28 47.31629 6.05717 37867 ft 474 kts 335°
2026-05-05 20:29 47.38038 6.03320 37875 ft 479 kts 353°
2026-05-05 20:29 47.44720 6.03308 37880 ft 481 kts
2026-05-05 20:30 47.51363 6.03590 37874 ft 481 kts 360°
2026-05-05 20:30 47.58054 6.03779 37877 ft 481 kts 359°
2026-05-05 20:31 47.64752 6.03913 37882 ft 481 kts 359°
2026-05-05 20:31 47.71445 6.04046 37856 ft 481 kts 359°
2026-05-05 20:32 47.78142 6.04207 37873 ft 481 kts 359°
2026-05-05 20:32 47.84842 6.04422 37871 ft 482 kts 360°
2026-05-05 20:33 47.91545 6.04640 37860 ft 482 kts 360°
2026-05-05 20:33 47.98248 6.04851 37868 ft 482 kts 359°
2026-05-05 20:34 48.04962 6.05059 37854 ft 482 kts 359°
2026-05-05 20:34 48.11670 6.05268 37861 ft 482 kts 360°
2026-05-05 20:35 48.18381 6.05478 37853 ft 481 kts 360°
2026-05-05 20:35 48.25075 6.05688 37856 ft 481 kts 360°
2026-05-05 20:36 48.31761 6.05899 37861 ft 480 kts 360°
2026-05-05 20:36 48.38393 6.06177 37855 ft 480 kts
2026-05-05 20:37 48.45059 6.06511 37852 ft 479 kts
2026-05-05 20:37 48.51716 6.06842 37838 ft 478 kts
2026-05-05 20:38 48.58358 6.07162 37843 ft 478 kts
2026-05-05 20:38 48.65000 6.07479 37829 ft 477 kts
2026-05-05 20:39 48.71640 6.07797 37824 ft 477 kts
2026-05-05 20:39 48.78266 6.08115 37832 ft 476 kts
2026-05-05 20:40 48.84890 6.08434 37829 ft 476 kts
2026-05-05 20:40 48.91516 6.08755 37832 ft 476 kts
2026-05-05 20:41 48.98129 6.09075 37833 ft 476 kts
2026-05-05 20:41 49.04749 6.09397 37833 ft 476 kts
2026-05-05 20:42 49.11365 6.09719 37821 ft 476 kts
2026-05-05 20:42 49.17946 6.10040 37826 ft 476 kts
2026-05-05 20:43 49.24580 6.10365 37816 ft 477 kts
2026-05-05 20:43 49.31226 6.10692 37811 ft 478 kts
2026-05-05 20:44 49.37877 6.11019 37814 ft 478 kts
2026-05-05 20:44 49.44450 6.12379 37829 ft 478 kts 18°
2026-05-05 20:45 49.53672 6.18269 37828 ft 479 kts 24°
2026-05-05 20:45 49.59795 6.22345 37830 ft 480 kts 23°
2026-05-05 20:46 49.65907 6.26346 37831 ft 480 kts 23°
2026-05-05 20:46 49.72060 6.30343 37829 ft 480 kts 23°
2026-05-05 20:47 49.78219 6.34348 37804 ft 480 kts 23°
2026-05-05 20:47 49.84368 6.38361 37809 ft 479 kts 23°
2026-05-05 20:48 49.90518 6.42388 37796 ft 479 kts 23°
2026-05-05 20:48 49.96672 6.46430 37789 ft 479 kts 23°
2026-05-05 20:49 50.02703 6.50401 37795 ft 479 kts 23°
2026-05-05 20:49 50.08831 6.54447 37794 ft 478 kts 23°
2026-05-05 20:50 50.13922 6.57818 37799 ft 478 kts 23°
2026-05-05 20:50 50.21069 6.62563 37797 ft 477 kts 24°
2026-05-05 20:51 50.27170 6.66625 37809 ft 477 kts 24°
2026-05-05 20:51 50.33276 6.70702 37810 ft 476 kts 24°
2026-05-05 20:52 50.39368 6.74782 37722 ft 478 kts 24°
2026-05-05 20:52 50.42407 6.76822 37160 ft 482 kts 24°
2026-05-05 20:52 50.45472 6.78880 36592 ft 478 kts 24°
2026-05-05 20:53 50.48524 6.80934 35961 ft 477 kts 25°
2026-05-05 20:53 50.51583 6.82995 35074 ft 481 kts 25°
2026-05-05 20:53 50.54660 6.85073 34406 ft 480 kts 26°
2026-05-05 20:53 50.57725 6.87144 33681 ft 480 kts 26°
2026-05-05 20:54 50.60794 6.89221 32818 ft 480 kts 26°
2026-05-05 20:54 50.63851 6.91294 32119 ft 477 kts 26°
2026-05-05 20:54 50.66904 6.93366 31336 ft 476 kts 26°
2026-05-05 20:54 50.69939 6.95428 30574 ft 475 kts 26°
2026-05-05 20:55 50.72981 6.97500 29764 ft 475 kts 26°
2026-05-05 20:55 50.76019 6.99571 28845 ft 475 kts 26°
2026-05-05 20:55 50.79049 7.01639 27977 ft 474 kts 26°
2026-05-05 20:55 50.82066 7.03701 27064 ft 473 kts 25°
2026-05-05 20:56 50.85088 7.05770 26120 ft 473 kts 25°
2026-05-05 20:56 50.88104 7.07838 25382 ft 470 kts 25°
2026-05-05 20:56 50.91094 7.09889 24710 ft 465 kts 25°
2026-05-05 20:56 50.94043 7.11915 24050 ft 460 kts 25°
2026-05-05 20:57 50.96965 7.13927 23398 ft 456 kts 24°
2026-05-05 20:57 50.99860 7.15922 22640 ft 451 kts 24°
2026-05-05 20:57 51.02725 7.17899 21964 ft 446 kts 24°
2026-05-05 20:57 51.05548 7.19851 21311 ft 440 kts 24°
2026-05-05 20:58 51.08341 7.21784 20656 ft 436 kts 24°
2026-05-05 20:58 51.11108 7.23701 20013 ft 431 kts 24°
2026-05-05 20:58 51.13846 7.25601 19377 ft 427 kts 24°
2026-05-05 20:58 51.16522 7.27460 18755 ft 423 kts 24°
2026-05-05 20:59 51.19254 7.29361 18130 ft 420 kts 24°
2026-05-05 20:59 51.21916 7.31216 17421 ft 417 kts 24°
2026-05-05 20:59 51.24530 7.33039 16761 ft 413 kts 24°
2026-05-05 20:59 51.26305 7.34278 16321 ft 411 kts 24°
2026-05-05 21:00 51.29746 7.36684 15508 ft 405 kts 25°
2026-05-05 21:00 51.32318 7.38484 14892 ft 401 kts 24°
2026-05-05 21:00 51.34041 7.39691 14481 ft 399 kts 24°
2026-05-05 21:00 51.37392 7.42005 13684 ft 394 kts 22°
2026-05-05 21:01 51.39142 7.42982 13230 ft 392 kts 18°
2026-05-05 21:01 51.41751 7.44211 12591 ft 389 kts 17°
2026-05-05 21:01 51.44336 7.45394 11972 ft 385 kts 17°
2026-05-05 21:01 51.46854 7.46593 11376 ft 380 kts 18°
2026-05-05 21:02 51.49363 7.47819 11029 ft 370 kts 18°
2026-05-05 21:02 51.51771 7.49018 10914 ft 354 kts 18°
2026-05-05 21:02 51.54085 7.50180 10751 ft 343 kts 18°
2026-05-05 21:02 51.56330 7.51309 10621 ft 335 kts 18°
2026-05-05 21:03 51.58531 7.52417 10479 ft 328 kts 18°
2026-05-05 21:03 51.60685 7.53501 10344 ft 319 kts 18°
2026-05-05 21:03 51.62772 7.54551 10213 ft 309 kts 18°
2026-05-05 21:03 51.64790 7.55567 10082 ft 299 kts 18°
2026-05-05 21:04 51.66751 7.56554 9967 ft 291 kts 18°
2026-05-05 21:04 51.68656 7.57514 9845 ft 283 kts 18°
2026-05-05 21:04 51.70528 7.58459 9568 ft 282 kts 18°
2026-05-05 21:04 51.72343 7.59612 9272 ft 280 kts 27°
2026-05-05 21:05 51.74066 7.61055 8981 ft 278 kts 29°
2026-05-05 21:05 51.75770 7.62531 8686 ft 277 kts 28°
2026-05-05 21:05 51.77476 7.63984 8404 ft 276 kts 28°
2026-05-05 21:05 51.79181 7.65409 8109 ft 275 kts 28°
2026-05-05 21:06 51.80879 7.66815 7818 ft 275 kts 27°
2026-05-05 21:06 51.82580 7.68220 7533 ft 274 kts 28°
2026-05-05 21:06 51.84344 7.69364 7222 ft 275 kts
2026-05-05 21:06 51.86229 7.69055 6947 ft 275 kts 338°
2026-05-05 21:07 51.87809 7.67349 6681 ft 275 kts 316°
2026-05-05 21:07 51.89109 7.65152 6495 ft 270 kts 313°
2026-05-05 21:07 51.90382 7.62904 6300 ft 268 kts 313°
2026-05-05 21:07 51.91629 7.60710 6014 ft 268 kts 313°
2026-05-05 21:08 51.92901 7.58495 5666 ft 270 kts 314°
2026-05-05 21:08 51.94194 7.56263 5323 ft 272 kts 314°
2026-05-05 21:08 51.95490 7.54031 5041 ft 271 kts 314°
2026-05-05 21:08 51.96761 7.51841 5004 ft 261 kts 315°
2026-05-05 21:09 51.97949 7.49681 4983 ft 251 kts 310°
2026-05-05 21:09 51.99024 7.47530 4977 ft 241 kts 310°
2026-05-05 21:09 52.00059 7.45443 4863 ft 235 kts 310°
2026-05-05 21:09 52.01081 7.43401 4677 ft 230 kts 310°
2026-05-05 21:10 52.02083 7.41406 4423 ft 226 kts 311°
2026-05-05 21:10 52.03072 7.39458 4183 ft 220 kts 315°
2026-05-05 21:10 52.04336 7.38257 3952 ft 207 kts 354°
2026-05-05 21:10 52.05708 7.38468 3746 ft 195 kts 24°
2026-05-05 21:11 52.06843 7.39573 3544 ft 188 kts 44°
2026-05-05 21:11 52.07519 7.41274 3493 ft 179 kts 68°
2026-05-05 21:11 52.08047 7.43158 3259 ft 185 kts 66°
2026-05-05 21:11 52.08539 7.45078 3022 ft 181 kts 69°
2026-05-05 21:12 52.08948 7.46946 2795 ft 175 kts 70°
2026-05-05 21:12 52.09339 7.48810 2540 ft 174 kts 70°
2026-05-05 21:12 52.09728 7.50673 2313 ft 172 kts 70°
2026-05-05 21:12 52.10105 7.52482 2071 ft 166 kts 70°
2026-05-05 21:13 52.10473 7.54239 1840 ft 160 kts 69°
2026-05-05 21:13 52.10819 7.55892 1620 ft 149 kts 70°
2026-05-05 21:13 52.11138 7.57422 1461 ft 137 kts 68°
2026-05-05 21:13 52.11437 7.58843 1284 ft 129 kts 69°
2026-05-05 21:14 52.11723 7.60204 1072 ft 126 kts 68°
2026-05-05 21:14 52.12015 7.61596 890 ft 135 kts 69°
2026-05-05 21:14 52.12317 7.63037 717 ft 133 kts 67°
2026-05-05 21:14 52.12617 7.64461 535 ft 135 kts 68°
2026-05-05 21:15 52.12923 7.65916 334 ft 136 kts 69°
2026-05-05 21:15 52.13229 7.67371 182 ft 136 kts 68°
2026-05-05 21:15 52.13509 7.68633 166 ft 86 kts 71°
2026-05-05 21:15 52.13673 7.69438 168 ft 47 kts 71°
2026-05-05 21:16 52.13742 7.69791 167 ft 29 kts 70°
2026-05-05 21:16 52.13749 7.69989 166 ft 17 kts 129°
2026-05-05 21:16 52.13641 7.70019 166 ft 17 kts 208°
2026-05-05 21:16 52.13581 7.69865 166 ft 16 kts 249°
2026-05-05 21:17 52.13544 7.69701 167 ft 15 kts 251°
2026-05-05 21:17 52.13511 7.69539 167 ft 15 kts 251°
2026-05-05 21:17 52.13478 7.69385 167 ft 14 kts 251°
2026-05-05 21:17 52.13447 7.69237 167 ft 13 kts 251°
2026-05-05 21:18 52.13417 7.69096 166 ft 13 kts 251°
2026-05-05 21:18 52.13393 7.68978 167 ft 4 kts 251°
2026-05-05 21:18 52.13385 7.68938 167 ft 4 kts 251°
2026-05-05 21:18 52.13375 7.68900 167 ft 4 kts 240°
2026-05-05 21:19 52.13357 7.68873 167 ft 4 kts 210°
2026-05-05 21:19 52.13319 7.68877 167 ft 7 kts 149°
2026-05-05 21:19 52.13283 7.68921 167 ft 8 kts 169°
2026-05-05 21:19 52.13232 7.68922 167 ft 7 kts 173°
2026-05-05 21:20 52.13186 7.68944 167 ft 7 kts 154°
2026-05-05 21:20 52.13165 7.69009 167 ft 7 kts 85°
2026-05-05 21:20 52.13177 7.69083 166 ft 5 kts 73°
2026-05-05 21:20 52.13177 7.69084 167 ft 0 kts 73°
2026-05-05 21:21 52.13177 7.69085 167 ft 1 kts 73°
2026-05-05 21:21 52.13171 7.69141 167 ft 7 kts 126°
2026-05-05 21:21 52.13146 7.69155 167 ft 3 kts 192°
2026-05-05 21:22 52.13131 7.69133 167 ft 3 kts 218°
2026-05-05 21:22 52.13123 7.69126 166 ft 1 kts 208°
2026-05-05 21:22 52.13118 7.69122 167 ft 1 kts 205°
2026-05-05 21:22 52.13116 7.69121 167 ft 0 kts 205°